Time,TemperatureF,DewpointF,PressureIn,WindDirection,WindDirectionDegrees,WindSpeedMPH,WindSpeedGustMPH,Humidity,HourlyPrecipIn,Conditions,Clouds,dailyrainin,SoftwareType,DateUTC
2013-11-19 00:21:00,47.0,31.0,30.17,North,5,5.0,13.0,53,0.00,,,0.00,,2013-11-19 06:21:00,
2013-11-19 00:52:00,47.0,31.0,30.16,NNE,20,5.0,13.0,53,0.00,,,0.00,,2013-11-19 06:52:00,
2013-11-19 01:22:00,46.0,30.0,30.16,NNE,17,7.0,14.0,54,0.00,,,0.00,,2013-11-19 07:22:00,
2013-11-19 01:52:00,45.0,29.0,30.17,North,10,3.0,13.0,53,0.00,,,0.00,,2013-11-19 07:52:00,
2013-11-19 02:22:00,45.0,28.0,30.16,North,2,5.0,14.0,52,0.00,,,0.00,,2013-11-19 08:22:00,
2013-11-19 02:42:00,44.0,28.0,30.16,NNE,26,7.0,14.0,52,0.00,,,0.00,,2013-11-19 08:42:00,
2013-11-19 02:52:00,44.0,28.0,30.17,North,11,6.0,15.0,52,0.00,,,0.00,,2013-11-19 08:52:00,
2013-11-19 03:21:00,44.0,28.0,30.16,NNE,14,7.0,12.0,53,0.00,,,0.00,,2013-11-19 09:21:00,
2013-11-19 03:43:00,44.0,28.0,30.16,NNE,27,6.0,14.0,53,0.00,,,0.00,,2013-11-19 09:43:00,
2013-11-19 03:53:00,43.0,28.0,30.15,North,7,4.0,12.0,55,0.00,,,0.00,,2013-11-19 09:53:00,
2013-11-19 04:23:00,42.0,27.0,30.16,NNE,29,6.0,12.0,55,0.00,,,0.00,,2013-11-19 10:23:00,
2013-11-19 04:53:00,42.0,27.0,30.17,North,0,1.0,7.0,56,0.00,,,0.00,,2013-11-19 10:53:00,
2013-11-19 05:22:00,41.0,26.0,30.17,NNE,23,3.0,9.0,55,0.00,,,0.00,,2013-11-19 11:22:00,
2013-11-19 05:42:00,41.0,27.0,30.18,North,11,2.0,7.0,56,0.00,,,0.00,,2013-11-19 11:42:00,
2013-11-19 05:52:00,41.0,26.0,30.18,North,1,3.0,8.0,55,0.00,,,0.00,,2013-11-19 11:52:00,
2013-11-19 06:21:00,41.0,27.0,30.19,NNE,23,6.0,12.0,56,0.00,,,0.00,,2013-11-19 12:21:00,
2013-11-19 06:42:00,41.0,26.0,30.20,NNW,347,3.0,10.0,55,0.00,,,0.00,,2013-11-19 12:42:00,
2013-11-19 06:52:00,41.0,27.0,30.20,NNE,17,6.0,12.0,56,0.00,,,0.00,,2013-11-19 12:52:00,
2013-11-19 07:42:00,41.0,27.0,30.19,NNE,22,5.0,10.0,57,0.00,,,0.00,,2013-11-19 13:42:00,
2013-11-19 07:52:00,41.0,27.0,30.21,NNE,16,5.0,12.0,57,0.00,,,0.00,,2013-11-19 13:52:00,
2013-11-19 08:22:00,42.0,27.0,30.22,NNE,22,6.0,12.0,55,0.00,,,0.00,,2013-11-19 14:22:00,
2013-11-19 08:52:00,42.0,27.0,30.22,NNE,20,4.0,9.0,55,0.00,,,0.00,,2013-11-19 14:52:00,
2013-11-19 09:22:00,43.0,26.0,30.22,North,356,5.0,9.0,51,0.00,,,0.00,,2013-11-19 15:22:00,
2013-11-19 09:54:00,45.0,25.0,30.22,NNE,31,9.0,16.0,46,0.00,,,0.00,,2013-11-19 15:54:00,
2013-11-19 10:23:00,46.0,26.0,30.21,NNE,15,9.0,18.0,45,0.00,,,0.00,,2013-11-19 16:23:00,
2013-11-19 10:43:00,47.0,25.0,30.19,NE,55,9.0,17.0,41,0.00,,,0.00,,2013-11-19 16:43:00,
2013-11-19 10:52:00,47.0,25.0,30.21,NNE,12,8.0,20.0,41,0.00,,,0.00,,2013-11-19 16:52:00,
2013-11-19 11:22:00,48.0,24.0,30.20,NE,35,7.0,16.0,39,0.00,,,0.00,,2013-11-19 17:22:00,
2013-11-19 11:43:00,47.0,23.0,30.20,North,356,9.0,14.0,38,0.00,,,0.00,,2013-11-19 17:43:00,
2013-11-19 11:52:00,49.0,24.0,30.20,NNE,32,9.0,14.0,37,0.00,,,0.00,,2013-11-19 17:52:00,
2013-11-19 12:22:00,49.0,24.0,30.19,ENE,65,9.0,15.0,37,0.00,,,0.00,,2013-11-19 18:22:00,
2013-11-19 12:52:00,50.0,26.0,30.16,North,0,7.0,14.0,39,0.00,,,0.00,,2013-11-19 18:52:00,
2013-11-19 13:21:00,49.0,26.0,30.15,NNE,23,6.0,12.0,41,0.00,,,0.00,,2013-11-19 19:21:00,
2013-11-19 13:41:00,49.0,26.0,30.14,NE,39,7.0,13.0,41,0.00,,,0.00,,2013-11-19 19:41:00,
2013-11-19 13:52:00,49.0,27.0,30.14,NE,48,6.0,13.0,42,0.00,,,0.00,,2013-11-19 19:52:00,
2013-11-19 14:21:00,49.0,26.0,30.14,NNE,28,3.0,12.0,41,0.00,,,0.00,,2013-11-19 20:21:00,
2013-11-19 14:52:00,50.0,27.0,30.14,NNE,29,7.0,15.0,40,0.00,,,0.00,,2013-11-19 20:52:00,
2013-11-19 15:21:00,50.0,26.0,30.13,North,1,5.0,12.0,39,0.00,,,0.00,,2013-11-19 21:21:00,
2013-11-19 15:43:00,50.0,27.0,30.14,NNE,24,8.0,15.0,40,0.00,,,0.00,,2013-11-19 21:43:00,
2013-11-19 15:54:00,49.0,27.0,30.14,NNW,344,5.0,12.0,43,0.00,,,0.00,,2013-11-19 21:54:00,
2013-11-19 16:23:00,49.0,26.0,30.14,NE,46,6.0,13.0,40,0.00,,,0.00,,2013-11-19 22:23:00,
2013-11-19 16:42:00,49.0,26.0,30.15,NNE,12,2.0,8.0,40,0.00,,,0.00,,2013-11-19 22:42:00,
2013-11-19 16:53:00,48.0,26.0,30.15,North,356,3.0,9.0,42,0.00,,,0.00,,2013-11-19 22:53:00,
2013-11-19 17:21:00,47.0,27.0,30.14,NNE,24,3.0,7.0,45,0.00,,,0.00,,2013-11-19 23:21:00,
2013-11-19 17:43:00,47.0,27.0,30.13,NNE,31,3.0,8.0,45,0.00,,,0.00,,2013-11-19 23:43:00,
2013-11-19 17:52:00,47.0,27.0,30.14,North,353,2.0,7.0,45,0.00,,,0.00,,2013-11-19 23:52:00,
2013-11-19 18:21:00,47.0,28.0,30.15,NNE,25,2.0,6.0,47,0.00,,,0.00,,2013-11-20 00:21:00,
2013-11-19 18:52:00,47.0,28.0,30.14,NE,41,3.0,5.0,47,0.00,,,0.00,,2013-11-20 00:52:00,
2013-11-19 19:21:00,46.0,27.0,30.16,NNE,25,1.0,3.0,48,0.00,,,0.00,,2013-11-20 01:21:00,
2013-11-19 19:52:00,45.0,27.0,30.16,North,356,1.0,3.0,50,0.00,,,0.00,,2013-11-20 01:52:00,
2013-11-19 20:21:00,45.0,27.0,30.15,NNE,21,1.0,3.0,50,0.00,,,0.00,,2013-11-20 02:21:00,
2013-11-19 20:42:00,45.0,28.0,30.14,North,2,3.0,7.0,51,0.00,,,0.00,,2013-11-20 02:42:00,
2013-11-19 20:52:00,45.0,28.0,30.15,NNE,30,2.0,7.0,51,0.00,,,0.00,,2013-11-20 02:52:00,
2013-11-19 21:21:00,43.0,27.0,30.15,NNE,14,2.0,5.0,53,0.00,,,0.00,,2013-11-20 03:21:00,
2013-11-19 21:44:00,43.0,27.0,30.15,NNE,28,1.0,3.0,53,0.00,,,0.00,,2013-11-20 03:44:00,
2013-11-19 21:54:00,43.0,28.0,30.15,North,3,1.0,3.0,54,0.00,,,0.00,,2013-11-20 03:54:00,
2013-11-19 22:13:00,42.0,27.0,30.15,NNE,19,1.0,3.0,56,0.00,,,0.00,,2013-11-20 04:13:00,
2013-11-19 22:23:00,42.0,27.0,30.15,NNE,13,2.0,3.0,56,0.00,,,0.00,,2013-11-20 04:23:00,
2013-11-19 22:52:00,41.0,27.0,30.14,NNE,29,0.0,5.0,58,0.00,,,0.00,,2013-11-20 04:52:00,
2013-11-19 23:22:00,40.0,27.0,30.15,NNE,15,0.0,3.0,60,0.00,,,0.00,,2013-11-20 05:22:00,
2013-11-19 23:53:00,40.0,28.0,30.14,North,0,1.0,3.0,62,0.00,,,0.00,,2013-11-20 05:53:00,